Chamberlain, SD

3:39 AM CDT on March 26, 2017 (GMT -0500)
Chamberlain

Weather History for K9V9 - January, 2014

Change the Weather History Date:

Sunday, January 12, 2014

  Actual Average Record
Temperature  
Mean Temperature 42 °F -  
Max Temperature 48 °F 26 °F 51 °F (2004)
Min Temperature 36 °F 7 °F -18 °F (1998)
Degree Days  
Heating Degree Days 23    
Moisture  
Dew Point 30 °F    
Average Humidity 63    
Maximum Humidity 79    
Minimum Humidity 46    
Precipitation  
Precipitation 0.00 in - - ()
Sea Level Pressure  
Sea Level Pressure 29.52 in    
Wind  
Wind Speed 11 mph (WNW)    
Max Wind Speed 16 mph    
Max Gust Speed 24 mph    
Averages and records for this station are not official NWS values.
T = Trace of Precipitation, MM = Missing Value Source: NWS Daily Summary

Daily Weather History Graph

Daily Weather History Graph

Search for Another Location

Airport or City:

Trip Planner

Search our weather history database for the weather conditions in past years. The results will help you decide how hot, cold, wet, or windy it might be!

Date:

Astronomy

Jan. 12, 2014 Rise Set
Actual Time 8:09 AM CST 5:22 PM CST
Civil Twilight 7:37 AM CST 5:54 PM CST
Nautical Twilight 7:01 AM CST 6:30 PM CST
Astronomical Twilight 6:27 AM CST 7:04 PM CST
Moon 2:52 PM CST (1/12) 5:08 AM CST (1/12)
Length of Visible Light 10h 17m
Length of Day
9h 12m
Waxing Gibbous, 90% of the Moon is Illuminated
Jan 12
Waxing Gibbous
Jan 15
Full
Jan 23
Last Quarter
Jan 30
New
Feb 6
First Quarter

Hourly Weather History & Observations

Time (CST) Temp. Windchill Dew Point Humidity Pressure Visibility Wind Dir Wind Speed Gust Speed Precip Events Conditions
12:52 AM 44.1 °F 39.0 °F 28.9 °F 55% 29.35 in - WSW 9.2 mph - N/A   Unknown
1:52 AM 46.0 °F 39.9 °F 30.0 °F 54% 29.32 in - WSW 13.8 mph - N/A   Unknown
2:52 AM 44.1 °F 37.7 °F 30.0 °F 58% 29.33 in - West 12.7 mph - N/A   Unknown
3:52 AM 44.1 °F 39.0 °F 30.9 °F 60% 29.37 in - WNW 9.2 mph - N/A   Unknown
4:52 AM 39.9 °F 33.9 °F 32.0 °F 73% 29.38 in - NW 9.2 mph - N/A   Unknown
5:52 AM 41.0 °F 33.1 °F 32.0 °F 70% 29.42 in - NW 15.0 mph - N/A   Unknown
6:52 AM 37.0 °F 29.8 °F 30.9 °F 79% 29.47 in - WNW 10.4 mph - N/A   Unknown
7:52 AM 39.0 °F 31.0 °F 30.9 °F 73% 29.48 in - NW 13.8 mph - N/A   Unknown
8:52 AM 36.0 °F 28.0 °F 30.0 °F 79% 29.49 in - WNW 11.5 mph - N/A   Unknown
9:52 AM 39.0 °F 31.0 °F 30.9 °F 73% 29.52 in - West 13.8 mph - N/A   Unknown
10:52 AM 42.1 °F 37.1 °F 30.9 °F 65% 29.51 in - NW 8.1 mph - N/A   Unknown
11:52 AM 45.0 °F 39.3 °F 32.0 °F 60% 29.49 in - WNW 11.5 mph - N/A   Unknown
12:52 PM 43.0 °F 36.8 °F 32.0 °F 65% 29.47 in - WNW 11.5 mph - N/A   Unknown
1:52 PM 46.9 °F - 28.0 °F 48% 29.45 in - NW 9.2 mph - N/A   Unknown
2:52 PM 48.0 °F - 28.0 °F 46% 29.48 in - WNW 9.2 mph - N/A   Unknown
3:52 PM 46.9 °F - 28.9 °F 50% 29.52 in - WNW 10.4 mph - N/A   Unknown
4:52 PM 46.0 °F 39.6 °F 28.0 °F 50% 29.57 in - WNW 15.0 mph - N/A   Unknown
5:52 PM 42.1 °F 36.1 °F 28.0 °F 58% 29.61 in - WNW 10.4 mph - N/A   Unknown
6:52 PM 39.9 °F 32.9 °F 27.0 °F 60% 29.64 in - NW 11.5 mph - N/A   Unknown
7:52 PM 39.0 °F 31.8 °F 27.0 °F 62% 29.65 in - WNW 11.5 mph - N/A   Unknown
8:52 PM 37.9 °F 30.0 °F 28.0 °F 68% 29.69 in - WNW 12.7 mph - N/A   Unknown
9:52 PM 37.0 °F 28.5 °F 28.0 °F 70% 29.70 in - WNW 13.8 mph 24.2 mph N/A   Unknown
10:52 PM 37.0 °F 29.3 °F 28.0 °F 70% 29.72 in - NW 11.5 mph 23.0 mph N/A   Unknown
11:52 PM 37.0 °F 27.7 °F 28.9 °F 73% 29.75 in - NW 16.1 mph 23.0 mph N/A   Unknown